Year,Month,Day,Hour,Minute,Value (Times are PST for windspeed in km/hr)
2021,11,10,00,00,2.70
2021,11,10,00,01,1.10
2021,11,10,00,02,2.40
2021,11,10,00,03,2.10
2021,11,10,00,04,1.40
2021,11,10,00,05,3.20
2021,11,10,00,06,8.90
2021,11,10,00,07,9.00
2021,11,10,00,08,6.90
2021,11,10,00,09,5.40
2021,11,10,00,10,4.80
2021,11,10,00,11,8.00
2021,11,10,00,12,4.10
2021,11,10,00,13,6.60
2021,11,10,00,14,4.60
2021,11,10,00,15,5.10
2021,11,10,00,16,2.70
2021,11,10,00,17,1.40
2021,11,10,00,18,4.70
2021,11,10,00,19,7.60
2021,11,10,00,20,9.40
2021,11,10,00,21,8.60
2021,11,10,00,22,9.00
2021,11,10,00,23,8.50
2021,11,10,00,24,9.30
2021,11,10,00,25,8.40
2021,11,10,00,26,6.20
2021,11,10,00,27,7.60
2021,11,10,00,28,6.70
2021,11,10,00,29,6.10
2021,11,10,00,30,4.10
2021,11,10,00,31,5.20
2021,11,10,00,32,6.60
2021,11,10,00,33,3.80
2021,11,10,00,34,4.80
2021,11,10,00,35,6.90
2021,11,10,00,36,2.50
2021,11,10,00,37,5.20
2021,11,10,00,38,4.20
2021,11,10,00,39,3.00
2021,11,10,00,40,3.30
2021,11,10,00,41,5.30
2021,11,10,00,42,0.00
2021,11,10,00,43,0.00
2021,11,10,00,44,0.00
2021,11,10,00,45,0.00
2021,11,10,00,46,0.00
2021,11,10,00,47,0.00
2021,11,10,00,48,0.00
2021,11,10,00,49,0.00
2021,11,10,00,50,0.00
2021,11,10,00,51,0.00
2021,11,10,00,52,0.00
2021,11,10,00,53,0.00
2021,11,10,00,54,0.00
2021,11,10,00,55,0.00
2021,11,10,00,56,0.00
2021,11,10,00,57,0.00
2021,11,10,00,58,0.00
2021,11,10,00,59,0.00
2021,11,10,01,00,0.00
2021,11,10,01,01,0.00
2021,11,10,01,02,0.00
2021,11,10,01,03,0.00
2021,11,10,01,04,0.00
2021,11,10,01,05,0.00
2021,11,10,01,06,0.00
2021,11,10,01,07,0.00
2021,11,10,01,08,5.70
2021,11,10,01,09,5.40
2021,11,10,01,10,7.70
2021,11,10,01,11,8.50
2021,11,10,01,12,7.60
2021,11,10,01,13,7.70
2021,11,10,01,14,7.70
2021,11,10,01,15,5.90
2021,11,10,01,16,7.60
2021,11,10,01,17,7.90
2021,11,10,01,18,7.30
2021,11,10,01,19,6.80
2021,11,10,01,20,6.70
2021,11,10,01,21,7.70
2021,11,10,01,22,6.60
2021,11,10,01,23,7.40
2021,11,10,01,24,7.80
2021,11,10,01,25,8.40
2021,11,10,01,26,9.80
2021,11,10,01,27,9.50
2021,11,10,01,28,9.40
2021,11,10,01,29,10.50
2021,11,10,01,30,9.40
2021,11,10,01,31,8.20
2021,11,10,01,32,7.70
2021,11,10,01,33,8.70
2021,11,10,01,34,8.00
2021,11,10,01,35,6.80
2021,11,10,01,36,6.50
2021,11,10,01,37,6.90
2021,11,10,01,38,9.50
2021,11,10,01,39,10.00
2021,11,10,01,40,11.00
2021,11,10,01,41,8.80
2021,11,10,01,42,9.30
2021,11,10,01,43,7.70
2021,11,10,01,44,4.00
2021,11,10,01,45,10.50
2021,11,10,01,46,10.50
2021,11,10,01,47,11.50
2021,11,10,01,48,9.40
2021,11,10,01,49,8.20
2021,11,10,01,50,8.20
2021,11,10,01,51,9.40
2021,11,10,01,52,10.50
2021,11,10,01,53,10.30
2021,11,10,01,54,9.50
2021,11,10,01,55,11.50
2021,11,10,01,56,12.50
2021,11,10,01,57,10.10
2021,11,10,01,58,9.10
2021,11,10,01,59,7.30
2021,11,10,02,00,9.20
2021,11,10,02,01,8.90
2021,11,10,02,02,6.70
2021,11,10,02,03,9.50
2021,11,10,02,04,8.80
2021,11,10,02,05,10.20
2021,11,10,02,06,7.30
2021,11,10,02,07,9.20
2021,11,10,02,08,10.00
2021,11,10,02,09,9.60
2021,11,10,02,10,7.80
2021,11,10,02,11,7.60
2021,11,10,02,12,8.10
2021,11,10,02,13,5.50
2021,11,10,02,14,8.90
2021,11,10,02,15,3.10
2021,11,10,02,16,2.70
2021,11,10,02,17,5.30
2021,11,10,02,18,4.80
2021,11,10,02,19,5.60
2021,11,10,02,20,5.00
2021,11,10,02,21,7.00
2021,11,10,02,22,7.90
2021,11,10,02,23,9.10
2021,11,10,02,24,9.50
2021,11,10,02,25,7.90
2021,11,10,02,26,7.10
2021,11,10,02,27,8.00
2021,11,10,02,28,8.10
2021,11,10,02,29,3.90
2021,11,10,02,30,6.60
2021,11,10,02,31,6.90
2021,11,10,02,32,6.70
2021,11,10,02,33,7.10
2021,11,10,02,34,8.50
2021,11,10,02,35,7.00
2021,11,10,02,36,7.70
2021,11,10,02,37,4.10
2021,11,10,02,38,6.60
2021,11,10,02,39,6.90
2021,11,10,02,40,6.00
2021,11,10,02,41,8.60
2021,11,10,02,42,13.40
2021,11,10,02,43,14.00
2021,11,10,02,44,11.20
2021,11,10,02,45,10.70
2021,11,10,02,46,8.90
2021,11,10,02,47,7.10
2021,11,10,02,48,6.30
2021,11,10,02,49,7.80
2021,11,10,02,50,9.20
2021,11,10,02,51,3.30
2021,11,10,02,52,6.40
2021,11,10,02,53,7.40
2021,11,10,02,54,9.30
2021,11,10,02,55,8.60
2021,11,10,02,56,4.90
2021,11,10,02,57,3.00
2021,11,10,02,58,6.70
2021,11,10,02,59,7.10
2021,11,10,03,00,8.50
2021,11,10,03,01,11.20
2021,11,10,03,02,11.70
2021,11,10,03,03,11.40
2021,11,10,03,04,11.10
2021,11,10,03,05,10.60
2021,11,10,03,06,10.20
2021,11,10,03,07,10.80
2021,11,10,03,08,10.60
2021,11,10,03,09,10.00
2021,11,10,03,10,11.90
2021,11,10,03,11,11.60
2021,11,10,03,12,12.30
2021,11,10,03,13,8.40
2021,11,10,03,14,8.40
2021,11,10,03,15,9.00
2021,11,10,03,16,8.40
2021,11,10,03,17,8.20
2021,11,10,03,18,8.30
2021,11,10,03,19,7.30
2021,11,10,03,20,4.90
2021,11,10,03,21,5.30
2021,11,10,03,22,2.40
2021,11,10,03,23,2.80
2021,11,10,03,24,6.40
2021,11,10,03,25,5.30
2021,11,10,03,26,4.30
2021,11,10,03,27,5.30
2021,11,10,03,28,5.20
2021,11,10,03,29,6.10
2021,11,10,03,30,7.40
2021,11,10,03,31,7.60
2021,11,10,03,32,7.60
2021,11,10,03,33,5.70
2021,11,10,03,34,6.40
2021,11,10,03,35,5.60
2021,11,10,03,36,1.70
2021,11,10,03,37,2.40
2021,11,10,03,38,1.80
2021,11,10,03,39,3.10
2021,11,10,03,40,2.10
2021,11,10,03,41,2.60
2021,11,10,03,42,4.00
2021,11,10,03,43,5.40
2021,11,10,03,44,6.60
2021,11,10,03,45,6.60
2021,11,10,03,46,6.60
2021,11,10,03,47,2.50
2021,11,10,03,48,5.50
2021,11,10,03,49,6.10
2021,11,10,03,50,7.30
2021,11,10,03,51,8.10
2021,11,10,03,52,11.10
2021,11,10,03,53,7.60
2021,11,10,03,54,3.80
2021,11,10,03,55,6.40
2021,11,10,03,56,10.20
2021,11,10,03,57,7.20
2021,11,10,03,58,9.60
2021,11,10,03,59,8.20
2021,11,10,04,00,10.80
2021,11,10,04,01,2.70
2021,11,10,04,02,6.80
2021,11,10,04,03,12.80
2021,11,10,04,04,14.00
2021,11,10,04,05,14.40
2021,11,10,04,06,12.60
2021,11,10,04,07,14.20
2021,11,10,04,08,17.10
2021,11,10,04,09,13.40
2021,11,10,04,10,11.50
2021,11,10,04,11,14.40
2021,11,10,04,12,12.60
2021,11,10,04,13,12.80
2021,11,10,04,14,9.80
2021,11,10,04,15,8.90
2021,11,10,04,16,7.20
2021,11,10,04,17,5.50
2021,11,10,04,18,6.70
2021,11,10,04,19,6.90
2021,11,10,04,20,5.60
2021,11,10,04,21,1.00
2021,11,10,04,22,0.00
2021,11,10,04,23,0.00
2021,11,10,04,24,0.00
2021,11,10,04,25,0.00
2021,11,10,04,26,0.00
2021,11,10,04,27,0.00
2021,11,10,04,28,0.00
2021,11,10,04,29,0.00
2021,11,10,04,30,0.00
2021,11,10,04,31,0.00
2021,11,10,04,32,0.00
2021,11,10,04,33,0.00
2021,11,10,04,34,0.00
2021,11,10,04,35,0.00
2021,11,10,04,36,0.00
2021,11,10,04,37,0.00
2021,11,10,04,38,0.00
2021,11,10,04,39,0.00
2021,11,10,04,40,0.00
2021,11,10,04,41,0.00
2021,11,10,04,42,0.00
2021,11,10,04,43,0.00
2021,11,10,04,44,0.00
2021,11,10,04,45,0.00
2021,11,10,04,46,0.00
2021,11,10,04,47,0.00
2021,11,10,04,48,0.00
2021,11,10,04,49,0.00
2021,11,10,04,50,0.00
2021,11,10,04,51,0.00
2021,11,10,04,52,0.00
2021,11,10,04,53,0.00
2021,11,10,04,54,0.00
2021,11,10,04,55,0.00
2021,11,10,04,56,0.00
2021,11,10,04,57,0.00
2021,11,10,04,58,0.00
2021,11,10,04,59,0.00
2021,11,10,05,00,0.00
2021,11,10,05,01,0.00
2021,11,10,05,02,0.00
2021,11,10,05,03,0.00
2021,11,10,05,04,0.00
2021,11,10,05,05,0.00
2021,11,10,05,06,0.00
2021,11,10,05,07,0.00
2021,11,10,05,08,0.00
2021,11,10,05,09,0.00
2021,11,10,05,10,0.00
2021,11,10,05,11,0.00
2021,11,10,05,12,0.00
2021,11,10,05,13,0.00
2021,11,10,05,14,0.00
2021,11,10,05,15,0.00
2021,11,10,05,16,0.00
2021,11,10,05,17,0.00
2021,11,10,05,18,0.00
2021,11,10,05,19,0.00
2021,11,10,05,20,0.00
2021,11,10,05,21,0.00
2021,11,10,05,22,0.00
2021,11,10,05,23,0.00
2021,11,10,05,24,0.00
2021,11,10,05,25,0.00
2021,11,10,05,26,0.00
2021,11,10,05,27,0.00
2021,11,10,05,28,0.00
2021,11,10,05,29,0.00
2021,11,10,05,30,0.00
2021,11,10,05,31,0.00
2021,11,10,05,32,0.00
2021,11,10,05,33,0.00
2021,11,10,05,34,0.00
2021,11,10,05,35,0.00
2021,11,10,05,36,0.00
2021,11,10,05,37,0.00
2021,11,10,05,38,0.00
2021,11,10,05,39,0.00
2021,11,10,05,40,0.00
2021,11,10,05,41,0.00
2021,11,10,05,42,0.00
2021,11,10,05,43,0.00
2021,11,10,05,44,0.00
2021,11,10,05,45,0.00
2021,11,10,05,46,0.00
2021,11,10,05,47,0.00
2021,11,10,05,48,0.00
2021,11,10,05,49,0.00
2021,11,10,05,50,0.00
2021,11,10,05,51,0.00
2021,11,10,05,52,0.00
2021,11,10,05,53,0.00
2021,11,10,05,54,0.00
2021,11,10,05,55,0.00
2021,11,10,05,56,0.00
2021,11,10,05,57,0.00
2021,11,10,05,58,0.00
2021,11,10,05,59,0.00
2021,11,10,06,00,0.00
2021,11,10,06,01,0.00
2021,11,10,06,02,2.00
2021,11,10,06,03,4.40
2021,11,10,06,04,0.20
2021,11,10,06,05,0.00
2021,11,10,06,06,0.00
2021,11,10,06,07,0.00
2021,11,10,06,08,0.00
2021,11,10,06,09,0.00
2021,11,10,06,10,0.00
2021,11,10,06,11,0.00
2021,11,10,06,12,0.00
2021,11,10,06,13,0.00
2021,11,10,06,14,0.00
2021,11,10,06,15,0.00
2021,11,10,06,16,0.00
2021,11,10,06,17,0.00
2021,11,10,06,18,0.00
2021,11,10,06,19,0.00
2021,11,10,06,20,0.00
2021,11,10,06,21,0.00
2021,11,10,06,22,0.00
2021,11,10,06,23,0.00
2021,11,10,06,24,0.00
2021,11,10,06,25,0.00
2021,11,10,06,26,0.00
2021,11,10,06,27,0.00
2021,11,10,06,28,0.00
2021,11,10,06,29,0.00
2021,11,10,06,30,0.00
2021,11,10,06,31,0.00
2021,11,10,06,32,0.00
2021,11,10,06,33,0.00
2021,11,10,06,34,0.00
2021,11,10,06,35,0.00
2021,11,10,06,36,0.00
2021,11,10,06,37,0.00
2021,11,10,06,38,0.00
2021,11,10,06,39,0.00
2021,11,10,06,40,0.00
2021,11,10,06,41,0.00
2021,11,10,06,42,0.00
2021,11,10,06,43,0.00
2021,11,10,06,44,0.00
2021,11,10,06,45,0.00
2021,11,10,06,46,0.00
2021,11,10,06,47,0.00
2021,11,10,06,48,0.00
2021,11,10,06,49,0.00
2021,11,10,06,50,0.00
2021,11,10,06,51,0.00
2021,11,10,06,52,0.00
2021,11,10,06,53,0.00
2021,11,10,06,54,0.00
2021,11,10,06,55,0.00
2021,11,10,06,56,0.00
2021,11,10,06,57,0.00
2021,11,10,06,58,0.00
2021,11,10,06,59,0.00
2021,11,10,07,00,0.00
2021,11,10,07,01,0.00
2021,11,10,07,02,0.00
2021,11,10,07,03,0.00
2021,11,10,07,04,0.00
2021,11,10,07,05,0.00
2021,11,10,07,06,0.00
2021,11,10,07,07,0.00
2021,11,10,07,08,0.00
2021,11,10,07,09,0.00
2021,11,10,07,10,0.40
2021,11,10,07,11,0.00
2021,11,10,07,12,0.00
2021,11,10,07,13,0.00
2021,11,10,07,14,1.00
2021,11,10,07,15,0.00
2021,11,10,07,16,0.00
2021,11,10,07,17,0.00
2021,11,10,07,18,0.00
2021,11,10,07,19,0.00
2021,11,10,07,20,0.00
2021,11,10,07,21,0.00
2021,11,10,07,22,0.00
2021,11,10,07,23,0.00
2021,11,10,07,24,0.00
2021,11,10,07,25,0.00
2021,11,10,07,26,0.00
2021,11,10,07,27,0.00
2021,11,10,07,28,0.00
2021,11,10,07,29,0.00
2021,11,10,07,30,0.00
2021,11,10,07,31,0.00
2021,11,10,07,32,0.00
2021,11,10,07,33,0.00
2021,11,10,07,34,0.00
2021,11,10,07,35,0.00
2021,11,10,07,36,0.00
2021,11,10,07,37,0.00
2021,11,10,07,38,0.00
2021,11,10,07,39,0.00
2021,11,10,07,40,0.00
2021,11,10,07,41,0.00
2021,11,10,07,42,0.00
2021,11,10,07,43,0.00
2021,11,10,07,44,0.00
2021,11,10,07,45,0.00
2021,11,10,07,46,0.00
2021,11,10,07,47,0.00
2021,11,10,07,48,0.00
2021,11,10,07,49,0.30
2021,11,10,07,50,0.30
2021,11,10,07,51,0.10
2021,11,10,07,52,0.00
2021,11,10,07,53,0.00
2021,11,10,07,54,0.10
2021,11,10,07,55,0.00
2021,11,10,07,56,0.00
2021,11,10,07,57,0.00
2021,11,10,07,58,0.00
2021,11,10,07,59,0.00
2021,11,10,08,00,0.00
2021,11,10,08,01,0.00
2021,11,10,08,02,0.00
2021,11,10,08,03,0.00
2021,11,10,08,04,0.00
2021,11,10,08,05,0.00
2021,11,10,08,06,0.00
2021,11,10,08,07,0.40
2021,11,10,08,08,2.60
2021,11,10,08,09,0.20
2021,11,10,08,10,0.00
2021,11,10,08,11,0.00
2021,11,10,08,12,0.00
2021,11,10,08,13,0.00
2021,11,10,08,14,0.00
2021,11,10,08,15,0.00
2021,11,10,08,16,0.00
2021,11,10,08,17,0.00
2021,11,10,08,18,0.60
2021,11,10,08,19,5.50
2021,11,10,08,20,7.70
2021,11,10,08,21,6.10
2021,11,10,08,22,10.00
2021,11,10,08,23,11.40
2021,11,10,08,24,9.40
2021,11,10,08,25,9.00
2021,11,10,08,26,7.30
2021,11,10,08,27,10.30
2021,11,10,08,28,6.20
2021,11,10,08,29,9.40
2021,11,10,08,30,11.00
2021,11,10,08,31,8.60
2021,11,10,08,32,9.60
2021,11,10,08,33,8.30
2021,11,10,08,34,9.30
2021,11,10,08,35,8.40
2021,11,10,08,36,8.70
2021,11,10,08,37,11.90
2021,11,10,08,38,8.60
2021,11,10,08,39,11.60
2021,11,10,08,40,9.20
2021,11,10,08,41,11.40
2021,11,10,08,42,12.20
2021,11,10,08,43,9.20
2021,11,10,08,44,8.50
2021,11,10,08,45,9.50
2021,11,10,08,46,9.40
2021,11,10,08,47,9.60
2021,11,10,08,48,12.20
2021,11,10,08,49,10.30
2021,11,10,08,50,9.20
2021,11,10,08,51,8.20
2021,11,10,08,52,7.40
2021,11,10,08,53,12.50
2021,11,10,08,54,13.10
2021,11,10,08,55,14.60
2021,11,10,08,56,11.80
2021,11,10,08,57,13.90
2021,11,10,08,58,16.90
2021,11,10,08,59,13.60
2021,11,10,09,00,10.20
2021,11,10,09,01,12.80
2021,11,10,09,02,12.50
2021,11,10,09,03,12.80
2021,11,10,09,04,12.30
2021,11,10,09,05,12.90
2021,11,10,09,06,14.90
2021,11,10,09,07,11.90
2021,11,10,09,08,8.40
2021,11,10,09,09,6.20
2021,11,10,09,10,5.90
2021,11,10,09,11,3.10
2021,11,10,09,12,5.60
2021,11,10,09,13,5.70
2021,11,10,09,14,7.40
2021,11,10,09,15,8.50
2021,11,10,09,16,11.90
2021,11,10,09,17,9.10
2021,11,10,09,18,12.00
2021,11,10,09,19,11.10
2021,11,10,09,20,9.30
2021,11,10,09,21,10.80
2021,11,10,09,22,11.20
2021,11,10,09,23,5.90
2021,11,10,09,24,8.80
2021,11,10,09,25,8.80
2021,11,10,09,26,9.10
2021,11,10,09,27,9.60
2021,11,10,09,28,6.50
2021,11,10,09,29,7.40
2021,11,10,09,30,7.80
2021,11,10,09,31,7.70
2021,11,10,09,32,4.60
2021,11,10,09,33,5.60
2021,11,10,09,34,7.50
2021,11,10,09,35,4.50
2021,11,10,09,36,8.70
2021,11,10,09,37,7.50
2021,11,10,09,38,8.30
2021,11,10,09,39,5.50
2021,11,10,09,40,6.80
2021,11,10,09,41,12.90
2021,11,10,09,42,11.80
2021,11,10,09,43,5.80
2021,11,10,09,44,8.40
2021,11,10,09,45,8.40
2021,11,10,09,46,12.00
2021,11,10,09,47,7.30
2021,11,10,09,48,9.50
2021,11,10,09,49,3.30
2021,11,10,09,50,2.70
2021,11,10,09,51,7.60
2021,11,10,09,52,4.90
2021,11,10,09,53,2.50
2021,11,10,09,54,9.80
2021,11,10,09,55,8.00
2021,11,10,09,56,0.60
2021,11,10,09,57,5.50
2021,11,10,09,58,5.80
2021,11,10,09,59,8.10
2021,11,10,10,00,6.30
2021,11,10,10,01,7.80
2021,11,10,10,02,10.80
2021,11,10,10,03,9.00
2021,11,10,10,04,9.50
2021,11,10,10,05,10.60
2021,11,10,10,06,11.90
2021,11,10,10,07,8.10
2021,11,10,10,08,3.90
2021,11,10,10,09,7.30
2021,11,10,10,10,7.20
2021,11,10,10,11,9.50
2021,11,10,10,12,7.70
2021,11,10,10,13,5.70
2021,11,10,10,14,3.40
2021,11,10,10,15,4.30
2021,11,10,10,16,7.90
2021,11,10,10,17,8.90
2021,11,10,10,18,11.30
2021,11,10,10,19,7.40
2021,11,10,10,20,7.90
2021,11,10,10,21,2.50
2021,11,10,10,22,8.10
2021,11,10,10,23,10.20
2021,11,10,10,24,12.20
2021,11,10,10,25,10.10
2021,11,10,10,26,10.90
2021,11,10,10,27,5.90
2021,11,10,10,28,9.00
2021,11,10,10,29,7.60
2021,11,10,10,30,3.50
2021,11,10,10,31,1.60
2021,11,10,10,32,6.90
2021,11,10,10,33,3.20
2021,11,10,10,34,5.50
2021,11,10,10,35,5.90
2021,11,10,10,36,4.30
2021,11,10,10,37,6.90
2021,11,10,10,38,6.00
2021,11,10,10,39,5.60
2021,11,10,10,40,5.30
2021,11,10,10,41,7.40
2021,11,10,10,42,4.80
2021,11,10,10,43,2.80
2021,11,10,10,44,7.10
2021,11,10,10,45,5.80
2021,11,10,10,46,7.20
2021,11,10,10,47,7.10
2021,11,10,10,48,9.10
2021,11,10,10,49,6.30
2021,11,10,10,50,8.50
2021,11,10,10,51,11.20
2021,11,10,10,52,11.00
2021,11,10,10,53,10.30
2021,11,10,10,54,7.20
2021,11,10,10,55,5.80
2021,11,10,10,56,3.60
2021,11,10,10,57,7.50
2021,11,10,10,58,7.20
2021,11,10,10,59,6.10
2021,11,10,11,00,6.40
2021,11,10,11,01,2.40
2021,11,10,11,02,2.00
2021,11,10,11,03,3.10
2021,11,10,11,04,4.40
2021,11,10,11,05,3.50
2021,11,10,11,06,6.20
2021,11,10,11,07,5.40
2021,11,10,11,08,7.20
2021,11,10,11,09,3.90
2021,11,10,11,10,7.40
2021,11,10,11,11,4.80
2021,11,10,11,12,5.70
2021,11,10,11,13,1.00
2021,11,10,11,14,0.70
2021,11,10,11,15,8.30
2021,11,10,11,16,6.50
2021,11,10,11,17,4.00
2021,11,10,11,18,7.40
2021,11,10,11,19,8.00
2021,11,10,11,20,9.50
2021,11,10,11,21,5.30
2021,11,10,11,22,2.20
2021,11,10,11,23,8.20
2021,11,10,11,24,8.90
2021,11,10,11,25,7.70
2021,11,10,11,26,5.70
2021,11,10,11,27,6.30
2021,11,10,11,28,4.50
2021,11,10,11,29,5.80
2021,11,10,11,30,7.70
2021,11,10,11,31,5.20
2021,11,10,11,32,5.70
2021,11,10,11,33,5.70
2021,11,10,11,34,1.20
2021,11,10,11,35,4.00
2021,11,10,11,36,6.10
2021,11,10,11,37,9.00
2021,11,10,11,38,6.50
2021,11,10,11,39,1.50
2021,11,10,11,40,1.80
2021,11,10,11,41,6.10
2021,11,10,11,42,5.00
2021,11,10,11,43,6.80
2021,11,10,11,44,4.20
2021,11,10,11,45,5.00
2021,11,10,11,46,6.10
2021,11,10,11,47,1.70
2021,11,10,11,48,4.30
2021,11,10,11,49,2.00
2021,11,10,11,50,5.20
2021,11,10,11,51,7.10
2021,11,10,11,52,8.70
2021,11,10,11,53,5.30
2021,11,10,11,54,4.50
2021,11,10,11,55,10.00
2021,11,10,11,56,9.80
2021,11,10,11,57,8.20
2021,11,10,11,58,4.40
2021,11,10,11,59,4.70
2021,11,10,12,00,3.20
2021,11,10,12,01,4.80
2021,11,10,12,02,5.30
2021,11,10,12,03,3.80
2021,11,10,12,04,6.60
2021,11,10,12,05,4.30
2021,11,10,12,06,7.30
2021,11,10,12,07,6.10
2021,11,10,12,08,4.30
2021,11,10,12,09,3.70
2021,11,10,12,10,7.50
2021,11,10,12,11,4.80
2021,11,10,12,12,2.20
2021,11,10,12,13,5.30
2021,11,10,12,14,4.70
2021,11,10,12,15,3.30
2021,11,10,12,16,9.00
2021,11,10,12,17,8.40
2021,11,10,12,18,11.80
2021,11,10,12,19,9.40
2021,11,10,12,20,5.50
2021,11,10,12,21,1.50
2021,11,10,12,22,5.10
2021,11,10,12,23,7.70
2021,11,10,12,24,4.50
2021,11,10,12,25,10.90
2021,11,10,12,26,6.60
2021,11,10,12,27,4.60
2021,11,10,12,28,5.50
2021,11,10,12,29,3.70
2021,11,10,12,30,4.50
2021,11,10,12,31,4.60
2021,11,10,12,32,6.00
2021,11,10,12,33,9.50
2021,11,10,12,34,8.40
2021,11,10,12,35,9.70
2021,11,10,12,36,9.40
2021,11,10,12,37,10.20
2021,11,10,12,38,9.60
2021,11,10,12,39,9.60
2021,11,10,12,40,9.60
2021,11,10,12,41,9.60
2021,11,10,12,42,7.00
2021,11,10,12,43,3.20
2021,11,10,12,44,4.80
2021,11,10,12,45,3.40
2021,11,10,12,46,3.00
2021,11,10,12,47,8.40
2021,11,10,12,48,9.60
2021,11,10,12,49,8.60
2021,11,10,12,50,5.50
2021,11,10,12,51,6.70
2021,11,10,12,52,10.60
2021,11,10,12,53,10.10
2021,11,10,12,54,11.70
2021,11,10,12,55,10.50
2021,11,10,12,56,5.60
2021,11,10,12,57,8.00
2021,11,10,12,58,4.40
2021,11,10,12,59,4.60
2021,11,10,13,00,6.90
2021,11,10,13,01,5.90
2021,11,10,13,02,5.50
2021,11,10,13,03,1.50
2021,11,10,13,04,6.60
2021,11,10,13,05,7.30
2021,11,10,13,06,3.30
2021,11,10,13,07,3.80
2021,11,10,13,08,1.10
2021,11,10,13,09,1.20
2021,11,10,13,10,6.40
2021,11,10,13,11,3.70
2021,11,10,13,12,4.20
2021,11,10,13,13,2.90
2021,11,10,13,14,3.00
2021,11,10,13,15,3.40
2021,11,10,13,16,4.00
2021,11,10,13,17,6.30
2021,11,10,13,18,4.40
2021,11,10,13,19,3.90
2021,11,10,13,20,4.50
2021,11,10,13,21,5.80
2021,11,10,13,22,3.90
2021,11,10,13,23,4.80
2021,11,10,13,24,4.60
2021,11,10,13,25,7.20
2021,11,10,13,26,7.10
2021,11,10,13,27,5.90
2021,11,10,13,28,7.40
2021,11,10,13,29,5.60
2021,11,10,13,30,6.90
2021,11,10,13,31,6.10
2021,11,10,13,32,3.00
2021,11,10,13,33,2.40
2021,11,10,13,34,6.40
2021,11,10,13,35,3.50
2021,11,10,13,36,3.50
2021,11,10,13,37,8.40
2021,11,10,13,38,4.40
2021,11,10,13,39,7.70
2021,11,10,13,40,7.40
2021,11,10,13,41,8.40
2021,11,10,13,42,7.20
2021,11,10,13,43,4.60
2021,11,10,13,44,4.60
2021,11,10,13,45,0.90
2021,11,10,13,46,9.00
2021,11,10,13,47,6.90
2021,11,10,13,48,6.60
2021,11,10,13,49,3.20
2021,11,10,13,50,9.00
2021,11,10,13,51,7.80
2021,11,10,13,52,8.90
2021,11,10,13,53,7.00
2021,11,10,13,54,1.00
2021,11,10,13,55,4.60
2021,11,10,13,56,2.20
2021,11,10,13,57,5.30
2021,11,10,13,58,9.00
2021,11,10,13,59,6.60
2021,11,10,14,00,7.80
2021,11,10,14,01,6.80
2021,11,10,14,02,4.10
2021,11,10,14,03,3.70
2021,11,10,14,04,1.20
2021,11,10,14,05,5.20
2021,11,10,14,06,4.10
2021,11,10,14,07,3.10
2021,11,10,14,08,7.50
2021,11,10,14,09,6.10
2021,11,10,14,10,9.40
2021,11,10,14,11,5.10
2021,11,10,14,12,7.30
2021,11,10,14,13,9.60
2021,11,10,14,14,6.70
2021,11,10,14,15,7.00
2021,11,10,14,16,10.20
2021,11,10,14,17,7.20
2021,11,10,14,18,3.40
2021,11,10,14,19,6.40
2021,11,10,14,20,7.30
2021,11,10,14,21,8.60
2021,11,10,14,22,8.30
2021,11,10,14,23,4.00
2021,11,10,14,24,4.70
2021,11,10,14,25,2.20
2021,11,10,14,26,3.50
2021,11,10,14,27,7.90
2021,11,10,14,28,10.20
2021,11,10,14,29,9.20
2021,11,10,14,30,7.00
2021,11,10,14,31,6.40
2021,11,10,14,32,5.20
2021,11,10,14,33,6.90
2021,11,10,14,34,6.10
2021,11,10,14,35,6.40
2021,11,10,14,36,7.30
2021,11,10,14,37,7.10
2021,11,10,14,38,6.30
2021,11,10,14,39,2.00
2021,11,10,14,40,4.20
2021,11,10,14,41,4.00
2021,11,10,14,42,9.50
2021,11,10,14,43,4.50
2021,11,10,14,44,4.10
2021,11,10,14,45,8.40
2021,11,10,14,46,6.30
2021,11,10,14,47,5.10
2021,11,10,14,48,3.70
2021,11,10,14,49,6.60
2021,11,10,14,50,5.00
2021,11,10,14,51,3.10
2021,11,10,14,52,5.20
2021,11,10,14,53,2.50
2021,11,10,14,54,5.50
2021,11,10,14,55,6.60
2021,11,10,14,56,6.60
2021,11,10,14,57,7.30
2021,11,10,14,58,9.80
2021,11,10,14,59,9.20
2021,11,10,15,00,6.90
2021,11,10,15,01,9.20
2021,11,10,15,02,12.10
2021,11,10,15,03,10.90
2021,11,10,15,04,6.50
2021,11,10,15,05,6.60
2021,11,10,15,06,4.60
2021,11,10,15,07,8.10
2021,11,10,15,08,7.60
2021,11,10,15,09,3.80
2021,11,10,15,10,7.80
2021,11,10,15,11,5.10
2021,11,10,15,12,1.10
2021,11,10,15,13,5.20
2021,11,10,15,14,6.10
2021,11,10,15,15,9.50
2021,11,10,15,16,6.90
2021,11,10,15,17,5.00
2021,11,10,15,18,8.40
2021,11,10,15,19,4.70
2021,11,10,15,20,8.60
2021,11,10,15,21,5.40
2021,11,10,15,22,7.40
2021,11,10,15,23,7.30
2021,11,10,15,24,2.20
2021,11,10,15,25,1.10
2021,11,10,15,26,4.40
2021,11,10,15,27,5.30
2021,11,10,15,28,8.40
2021,11,10,15,29,6.50
2021,11,10,15,30,5.70
2021,11,10,15,31,1.10
2021,11,10,15,32,4.10
2021,11,10,15,33,6.60
2021,11,10,15,34,0.30
2021,11,10,15,35,0.00
2021,11,10,15,36,0.00
2021,11,10,15,37,2.70
2021,11,10,15,38,0.80
2021,11,10,15,39,0.10
2021,11,10,15,40,0.00
2021,11,10,15,41,0.70
2021,11,10,15,42,0.20
2021,11,10,15,43,4.70
2021,11,10,15,44,0.90
2021,11,10,15,45,0.50
2021,11,10,15,46,0.50
2021,11,10,15,47,2.20
2021,11,10,15,48,3.00
2021,11,10,15,49,0.70
2021,11,10,15,50,0.60
2021,11,10,15,51,0.00
2021,11,10,15,52,1.50
2021,11,10,15,53,0.10
2021,11,10,15,54,2.50
2021,11,10,15,55,0.80
2021,11,10,15,56,0.00
2021,11,10,15,57,0.00
2021,11,10,15,58,0.00
2021,11,10,15,59,0.00
2021,11,10,16,00,0.00
2021,11,10,16,01,0.00
2021,11,10,16,02,0.00
2021,11,10,16,03,0.00
2021,11,10,16,04,0.00
2021,11,10,16,05,2.60
2021,11,10,16,06,3.30
2021,11,10,16,07,0.20
2021,11,10,16,08,1.90
2021,11,10,16,09,1.10
2021,11,10,16,10,1.50
2021,11,10,16,11,0.30
2021,11,10,16,12,0.70
2021,11,10,16,13,0.00
2021,11,10,16,14,0.40
2021,11,10,16,15,0.70
2021,11,10,16,16,2.40
2021,11,10,16,17,0.20
2021,11,10,16,18,1.40
2021,11,10,16,19,3.70
2021,11,10,16,20,1.50
2021,11,10,16,21,1.30
2021,11,10,16,22,0.10
2021,11,10,16,23,0.10
2021,11,10,16,24,1.20
2021,11,10,16,25,0.60
2021,11,10,16,26,0.00
2021,11,10,16,27,0.00
2021,11,10,16,28,1.10
2021,11,10,16,29,1.10
2021,11,10,16,30,0.10
2021,11,10,16,31,0.10
2021,11,10,16,32,0.20
2021,11,10,16,33,0.10
2021,11,10,16,34,0.50
2021,11,10,16,35,1.90
2021,11,10,16,36,0.00
2021,11,10,16,37,0.20
2021,11,10,16,38,1.70
2021,11,10,16,39,0.00
2021,11,10,16,40,3.10
2021,11,10,16,41,0.20
2021,11,10,16,42,0.00
2021,11,10,16,43,1.40
2021,11,10,16,44,3.10
2021,11,10,16,45,2.40
2021,11,10,16,46,3.50
2021,11,10,16,47,4.00
2021,11,10,16,48,3.20
2021,11,10,16,49,1.60
2021,11,10,16,50,3.20
2021,11,10,16,51,3.30
2021,11,10,16,52,3.80
2021,11,10,16,53,4.60
2021,11,10,16,54,4.90
2021,11,10,16,55,4.20
2021,11,10,16,56,6.40
2021,11,10,16,57,6.50
2021,11,10,16,58,5.60
2021,11,10,16,59,4.10
2021,11,10,17,00,2.90
2021,11,10,17,01,4.50
2021,11,10,17,02,5.00
2021,11,10,17,03,6.10
2021,11,10,17,04,6.30
2021,11,10,17,05,6.70
2021,11,10,17,06,8.30
2021,11,10,17,07,7.80
2021,11,10,17,08,8.50
2021,11,10,17,09,9.30
2021,11,10,17,10,8.10
2021,11,10,17,11,6.10
2021,11,10,17,12,6.30
2021,11,10,17,13,6.70
2021,11,10,17,14,6.10
2021,11,10,17,15,3.60
2021,11,10,17,16,4.90
2021,11,10,17,17,3.70
2021,11,10,17,18,8.40
2021,11,10,17,19,9.00
2021,11,10,17,20,6.30
2021,11,10,17,21,10.50
2021,11,10,17,22,9.10
2021,11,10,17,23,8.10
2021,11,10,17,24,9.30
2021,11,10,17,25,7.30
2021,11,10,17,26,8.50
2021,11,10,17,27,8.00
2021,11,10,17,28,10.10
2021,11,10,17,29,8.70
2021,11,10,17,30,7.20
2021,11,10,17,31,4.20
2021,11,10,17,32,4.60
2021,11,10,17,33,5.90
2021,11,10,17,34,5.10
2021,11,10,17,35,8.70
2021,11,10,17,36,5.70
2021,11,10,17,37,7.70
2021,11,10,17,38,7.60
2021,11,10,17,39,6.70
2021,11,10,17,40,7.30
2021,11,10,17,41,5.30
2021,11,10,17,42,5.40
2021,11,10,17,43,8.60
2021,11,10,17,44,7.70
2021,11,10,17,45,7.30
2021,11,10,17,46,7.10
2021,11,10,17,47,5.10
2021,11,10,17,48,6.30
2021,11,10,17,49,5.00
2021,11,10,17,50,8.30
2021,11,10,17,51,7.00
2021,11,10,17,52,5.60
2021,11,10,17,53,2.70
2021,11,10,17,54,2.90
2021,11,10,17,55,1.40
2021,11,10,17,56,0.80
2021,11,10,17,57,3.80
2021,11,10,17,58,1.20
2021,11,10,17,59,0.70
2021,11,10,18,00,1.30
2021,11,10,18,01,4.00
2021,11,10,18,02,4.50